TimeEST,TemperatureF,Dew PointF,Humidity,Sea Level PressureIn,VisibilityMPH,Wind Direction,Wind SpeedMPH,Gust SpeedMPH,PrecipitationIn,Events,Conditions,WindDirDegrees,DateUTC
12:52 AM,37.0,28.9,73,30.23,10.0,West,15.0,20.7,N/A,,Clear,280,2013-11-08 05:52:00
1:23 AM,37.4,30.2,75,30.25,10.0,WNW,17.3,23.0,N/A,,Overcast,300,2013-11-08 06:23:00
1:52 AM,37.0,30.0,76,30.26,10.0,WNW,13.8,26.5,N/A,,Overcast,300,2013-11-08 06:52:00
2:52 AM,35.1,30.0,82,30.28,8.0,West,10.4,-,N/A,,Scattered Clouds,280,2013-11-08 07:52:00
3:52 AM,33.1,28.9,85,30.29,8.0,WNW,8.1,-,N/A,,Clear,290,2013-11-08 08:52:00
4:52 AM,30.9,28.0,89,30.30,7.0,West,4.6,-,N/A,,Clear,280,2013-11-08 09:52:00
5:52 AM,28.9,28.0,96,30.32,5.0,Calm,Calm,-,N/A,,Clear,0,2013-11-08 10:52:00
6:52 AM,28.9,27.0,92,30.34,5.0,SW,4.6,-,N/A,,Clear,230,2013-11-08 11:52:00
7:52 AM,30.0,28.9,96,30.35,5.0,SW,3.5,-,N/A,,Clear,230,2013-11-08 12:52:00
8:52 AM,34.0,30.0,85,30.38,8.0,SW,9.2,-,N/A,,Clear,220,2013-11-08 13:52:00
9:52 AM,39.0,32.0,76,30.38,10.0,West,9.2,-,N/A,,Clear,270,2013-11-08 14:52:00
10:52 AM,44.1,32.0,63,30.39,10.0,West,6.9,-,N/A,,Clear,270,2013-11-08 15:52:00
11:52 AM,46.9,30.0,52,30.36,10.0,NW,6.9,-,N/A,,Clear,320,2013-11-08 16:52:00
12:52 PM,48.9,30.0,48,30.34,10.0,West,8.1,-,N/A,,Partly Cloudy,270,2013-11-08 17:52:00
1:52 PM,50.0,27.0,41,30.32,10.0,West,10.4,-,N/A,,Partly Cloudy,280,2013-11-08 18:52:00
3:52 PM,50.0,26.1,39,30.29,10.0,NW,5.8,-,N/A,,Partly Cloudy,320,2013-11-08 20:52:00
4:52 PM,50.0,25.0,38,30.29,10.0,WSW,3.5,-,N/A,,Scattered Clouds,250,2013-11-08 21:52:00
5:52 PM,46.0,24.1,42,30.28,10.0,Calm,Calm,-,N/A,,Partly Cloudy,0,2013-11-08 22:52:00
6:52 PM,43.0,27.0,53,30.30,10.0,Calm,Calm,-,N/A,,Partly Cloudy,0,2013-11-08 23:52:00
7:52 PM,39.9,26.1,58,30.29,10.0,Calm,Calm,-,N/A,,Clear,0,2013-11-09 00:52:00
8:52 PM,35.1,30.0,82,30.27,10.0,South,4.6,-,N/A,,Scattered Clouds,180,2013-11-09 01:52:00
9:52 PM,41.0,28.0,60,30.26,10.0,South,4.6,-,N/A,,Overcast,170,2013-11-09 02:52:00
10:52 PM,39.9,28.9,65,30.25,10.0,South,5.8,-,N/A,,Mostly Cloudy,180,2013-11-09 03:52:00
11:52 PM,41.0,28.9,62,30.25,10.0,South,3.5,-,N/A,,Mostly Cloudy,190,2013-11-09 04:52:00